Volver al catálogo

COSMOS 2251 DEB

ActivoLEO
NORAD 34343·DEBRIS·🇷🇺 Russia

Lanzado Jun 16, 1993 desde Plesetsk Cosmodrome

Loading…

Próximos Pases (próximas 24 horas)

TLE

ActualizadoSource: Space-Track

Época: Sep 14, 2026, 01:56 UTC

1 34343U 93036PR  26257.08087696  .00004300  00000-0  66522-3 0  9995
2 34343  74.0159 273.6256 0016492 123.5147 300.1069 14.73481234927814

Sigue COSMOS 2251 DEB en tiempo real con AllMySat

Download on the App Store